Find OPS 7202

NORAD ID: 2920 Int'l Des: 1967-080 Owner: SAMSO Country: US operational
LEOCIRCULARRETROGRADESSO

Live Position

Loading 3D Globe...

About OPS 7202

Description loading...

Upcoming Passes

Passes for default location (London). Set your location on the main map for personalized predictions.

Altitude History

Loading altitude history...

Two-Line Element Set

1 2920U 67080A 26106.83735808 .00000049 00000-0 46656-4 0 9995
2 2920 98.5936 319.0139 0038082 171.5124 188.6703 14.15298537 24030
Epoch: Apr 16, 2026 • Age: 10 hours

Current Status

Altitude 881.6 km
Velocity 7.40 km/s
Sub-Earth Point -59.10°S, 38.7°E
Type other

Most Searched